Connexion S'enregistrer

Connexion à votre compte

Identifiant
Mot de passe
Maintenir la connexion active sur ce site

Créer un compte

Pour valider ce formulaire, vous devez remplir tous les champs.
Nom
Identifiant
Mot de passe
Répétez le mot de passe
Adresse e-mail
Répétez l'adresse e-mail

Nous contacter

 Téléphone : +33 (0)4 79 54 41 81

Coordonnées détaillées et accès : cliquez ici

 
LFLB °C
    Ferienhaus Ostsee
[source: ADDS]
METAR
LFLB 200530Z AUTO VRB02KT 4400 BR FEW029 08/08 Q1024 NOSIG =
TAF LFLB 200500Z 2006/2106 36007KT 6000 NSC TEMPO 2006/2008 3000 BR PROB30 TEMPO 2104/2106 4000 BR
TAF
TAF LFLB 200500Z 2006/2106 36007KT 6000 NSC TEMPO 2006/2008 3000 BR PROB30 TEMPO 2104/2106 4000 BR =
SR / SS: 05:59 / 16:42 UTC (Lever/Coucher du soleil le 2018-10-20)
JSN Boot template designed by JoomlaShine.com